Location: Caltech
(34.1382°N, 118.1253°W)
Time: 14:32:52
(UTC-08:00)

Transit 2A - Visible Passes

Search period start: 09 February 2016 00:00
Search period end: 19 February 2016 00:00
Orbit: 599 x 961 km, 66.7° (Epoch: 08 February)

Date Brightness Start Highest point End Pass type
(mag) Time Alt. Az. Time Alt. Az. Time Alt. Az.
09 Feb 6.3 18:00:51 10° NNW 18:06:17 82° WSW 18:12:15 10° SSE visible
10 Feb 9.3 19:12:09 10° WNW 19:15:09 15° WSW 19:18:14 10° SW visible
11 Feb 8.9 18:37:08 10° WNW 18:41:23 22° WSW 18:45:53 10° SSW visible
12 Feb 8.3 18:02:38 10° NW 18:07:34 33° WSW 18:12:52 10° S visible
15 Feb 8.7 05:50:36 10° SSE 05:53:26 17° ESE 05:56:18 10° ENE visible
15 Feb 9.7 18:06:07 10° WNW 18:08:40 13° WSW 18:11:17 10° SW visible
16 Feb 9.4 05:19:31 10° ESE 05:19:44 10° ESE 05:19:56 10° E visible
18 Feb 6.4 05:50:15 10° S 05:54:27 54° ESE 05:58:47 10° NE visible
